Weather History for Cavalier, ND

Change the Weather History Date:

Tuesday, February 26, 2013

  Actual Average (KGAF) Record (KGAF)
Temperature  
Mean Temperature 16 °F -  
Max Temperature 26 °F 30 °F 62 °F (1958)
Min Temperature 6 °F 12 °F -21 °F (1962)
Degree Days  
Heating Degree Days 49    
Moisture  
Dew Point 14 °F    
Average Humidity 88    
Maximum Humidity 100    
Minimum Humidity 74    
Precipitation  
Precipitation 0.00 in - - ()
Sea Level Pressure  
Sea Level Pressure 30.00 in    
Wind  
Wind Speed 9 mph (South)    
Max Wind Speed 13 mph    
Max Gust Speed -    
Visibility 8 miles    
Events      
Averages and records for this station are not official NWS values.
T = Trace of Precipitation, MM = Missing Value Source: NWS Daily Summary

Daily Weather History Graph

Daily Weather History Graph

Search for Another Location

Airport:

Trip Planner

Search our weather history database for the weather conditions in past years. The results will help you decide how hot, cold, wet, or windy it might be!

Date:

Astronomy

Feb. 26, 2013 Rise Set
Actual Time 7:17 AM CST 6:09 PM CST
Civil Twilight 6:45 AM CST 6:41 PM CST
Nautical Twilight 6:09 AM CST 7:18 PM CST
Astronomical Twilight 5:32 AM CST 7:54 PM CST
Moon 7:39 PM CST (2/26) 7:12 AM CST (2/26)
Length of Visible Light 11h 55m
Length of Day
10h 52m
Full, 99% of the Moon is Illuminated
Feb 26
Full
Mar 4
Last Quarter
Mar 11
New
Mar 19
First Quarter
Mar 27
Full

Hourly Weather History & Observations

Time (CST) Temp. Windchill Dew Point Humidity Pressure Visibility Wind Dir Wind Speed Gust Speed Precip Events Conditions
12:15 AM 15.8 °F 4.2 °F 15.8 °F 100% 29.91 in 10.0 mi South 9.2 mph - N/A   Clear
12:35 AM 15.8 °F 2.1 °F 14.0 °F 93% 29.91 in 10.0 mi South 12.7 mph - N/A   Clear
12:55 AM 15.8 °F 2.1 °F 14.0 °F 93% 29.90 in 10.0 mi South 12.7 mph - N/A   Clear
1:15 AM 15.8 °F 2.1 °F 14.0 °F 93% 29.90 in 10.0 mi South 12.7 mph - N/A   Clear
1:35 AM 15.8 °F 3.4 °F 12.2 °F 86% 29.91 in 10.0 mi South 10.4 mph - N/A   Clear
1:55 AM 14.0 °F 5.1 °F 12.2 °F 93% 29.91 in 10.0 mi SSE 5.8 mph - N/A   Clear
2:15 AM 15.8 °F 3.4 °F 12.2 °F 86% 29.92 in 10.0 mi South 10.4 mph - N/A   Clear
2:35 AM 14.0 °F 2.9 °F 10.4 °F 86% 29.92 in 10.0 mi South 8.1 mph - N/A   Clear
2:55 AM 12.2 °F 1.7 °F 10.4 °F 92% 29.92 in 10.0 mi South 6.9 mph - N/A   Clear
3:15 AM 14.0 °F 2.0 °F 10.4 °F 86% 29.92 in 10.0 mi South 9.2 mph - N/A   Clear
3:35 AM 10.4 °F -3.3 °F 8.6 °F 92% 29.93 in 10.0 mi South 10.4 mph - N/A   Clear
3:55 AM 10.4 °F -3.3 °F 8.6 °F 92% 29.93 in 10.0 mi South 10.4 mph - N/A   Clear
4:15 AM 14.0 °F 0.5 °F 10.4 °F 86% 29.93 in 9.0 mi South 11.5 mph - N/A   Clear
4:35 AM 12.2 °F -1.0 °F 8.6 °F 85% 29.94 in 9.0 mi South 10.4 mph - N/A   Clear
4:55 AM 10.4 °F -4.1 °F 6.8 °F 85% 29.94 in 9.0 mi South 11.5 mph - N/A   Clear
5:15 AM 10.4 °F -3.3 °F 8.6 °F 92% 29.95 in 9.0 mi South 10.4 mph - N/A   Clear
5:35 AM 8.6 °F -3.7 °F 6.8 °F 92% 29.95 in 9.0 mi South 8.1 mph - N/A   Clear
5:55 AM 8.6 °F -4.7 °F 6.8 °F 92% 29.95 in 9.0 mi South 9.2 mph - N/A   Clear
6:15 AM 8.6 °F -2.6 °F 6.8 °F 92% 29.97 in 9.0 mi South 6.9 mph - N/A   Clear
6:35 AM 8.6 °F -5.5 °F 6.8 °F 92% 29.97 in 9.0 mi South 10.4 mph - N/A   Clear
6:55 AM 6.8 °F -7.8 °F 5.0 °F 92% 29.97 in 9.0 mi South 10.4 mph - N/A   Clear
7:15 AM 6.8 °F -8.6 °F 5.0 °F 92% 29.98 in 8.0 mi South 11.5 mph - N/A   Clear
7:35 AM 8.6 °F -5.5 °F 6.8 °F 92% 29.98 in 8.0 mi South 10.4 mph - N/A   Clear
7:55 AM 8.6 °F -5.5 °F 5.0 °F 85% 29.98 in 8.0 mi South 10.4 mph - N/A   Clear
8:15 AM 8.6 °F -7.0 °F 5.0 °F 85% 29.98 in 8.0 mi South 12.7 mph - N/A   Clear
8:35 AM 10.4 °F -4.8 °F 6.8 °F 85% 29.97 in 8.0 mi South 12.7 mph - N/A   Clear
8:55 AM 10.4 °F -4.1 °F 6.8 °F 85% 29.97 in 8.0 mi South 11.5 mph - N/A   Clear
9:15 AM 10.4 °F -4.8 °F 6.8 °F 85% 29.98 in 8.0 mi South 12.7 mph - N/A   Clear
9:35 AM 12.2 °F -1.8 °F 8.6 °F 85% 29.98 in 9.0 mi South 11.5 mph - N/A   Clear
9:55 AM 14.0 °F 1.2 °F 8.6 °F 79% 29.99 in 9.0 mi South 10.4 mph - N/A   Clear
10:15 AM 14.0 °F 2.0 °F 10.4 °F 86% 29.99 in 9.0 mi South 9.2 mph - N/A   Clear
10:35 AM 15.8 °F 2.7 °F 10.4 °F 79% 29.99 in 9.0 mi South 11.5 mph - N/A   Clear
10:55 AM 15.8 °F 2.7 °F 10.4 °F 79% 29.99 in 10.0 mi South 11.5 mph - N/A   Clear
11:15 AM 17.6 °F 5.0 °F 12.2 °F 79% 29.99 in 10.0 mi South 11.5 mph - N/A   Clear
11:35 AM 17.6 °F 6.4 °F 14.0 °F 86% 30.00 in 10.0 mi South 9.2 mph - N/A   Clear
11:55 AM 19.4 °F 7.9 °F 14.0 °F 80% 30.00 in 9.0 mi South 10.4 mph - N/A   Clear
12:15 PM 21.2 °F 9.5 °F 15.8 °F 80% 30.00 in 10.0 mi South 11.5 mph - N/A   Clear
12:35 PM 23.0 °F 12.4 °F 15.8 °F 74% 30.00 in 10.0 mi South 10.4 mph - N/A   Clear
12:55 PM 23.0 °F 13.1 °F 17.6 °F 80% 30.01 in 10.0 mi South 9.2 mph - N/A   Clear
1:15 PM 24.8 °F 15.3 °F 17.6 °F 74% 30.01 in 10.0 mi South 9.2 mph - N/A   Clear
1:35 PM 24.8 °F 15.3 °F 17.6 °F 74% 30.01 in 10.0 mi South 9.2 mph - N/A   Clear
1:55 PM 24.8 °F 16.9 °F 19.4 °F 80% 30.02 in 10.0 mi South 6.9 mph - N/A   Clear
2:15 PM 26.6 °F 18.2 °F 19.4 °F 74% 30.02 in 10.0 mi South 8.1 mph - N/A   Clear
2:35 PM 26.6 °F 18.2 °F 19.4 °F 74% 30.02 in 10.0 mi South 8.1 mph - N/A   Clear
2:55 PM 26.6 °F 17.5 °F 21.2 °F 80% 30.02 in 10.0 mi South 9.2 mph - N/A   Clear
3:15 PM 26.6 °F 19.1 °F 21.2 °F 80% 30.02 in 9.0 mi South 6.9 mph - N/A   Clear
3:35 PM 26.6 °F 20.0 °F 23.0 °F 86% 30.02 in 9.0 mi SSW 5.8 mph - N/A   Clear
3:55 PM 26.6 °F 22.6 °F 21.2 °F 80% 30.03 in 9.0 mi SSW 3.5 mph - N/A   Clear
4:15 PM 26.6 °F 21.2 °F 23.0 °F 86% 30.03 in 9.0 mi South 4.6 mph - N/A   Clear
4:35 PM 26.6 °F 21.2 °F 21.2 °F 80% 30.04 in 9.0 mi South 4.6 mph - N/A   Clear
4:55 PM 24.8 °F 16.9 °F 21.2 °F 86% 30.04 in 8.0 mi South 6.9 mph - N/A   Clear
5:15 PM 24.8 °F 20.5 °F 23.0 °F 93% 30.05 in 7.0 mi SSE 3.5 mph - N/A   Clear
5:35 PM 24.8 °F 20.5 °F 23.0 °F 93% 30.05 in 7.0 mi South 3.5 mph - N/A   Clear
5:55 PM 23.0 °F 18.4 °F 23.0 °F 100% 30.05 in 7.0 mi SSE 3.5 mph - N/A   Clear
6:15 PM 23.0 °F - 21.2 °F 93% 30.05 in 5.0 mi Calm Calm - N/A   Clear
6:35 PM 21.2 °F 14.9 °F 19.4 °F 93% 30.05 in 5.0 mi SSW 4.6 mph - N/A   Clear
6:55 PM 17.6 °F 12.3 °F 17.6 °F 100% 30.06 in 7.0 mi South 3.5 mph - N/A   Clear
7:15 PM 17.6 °F - 17.6 °F 100% 30.06 in 5.0 mi Calm Calm - N/A   Clear
7:35 PM 15.8 °F - 15.8 °F 100% 30.07 in 5.0 mi Calm Calm - N/A   Clear
7:55 PM 17.6 °F 12.3 °F 15.8 °F 93% 30.07 in 6.0 mi West 3.5 mph - N/A   Clear
8:15 PM 15.8 °F 6.1 °F 14.0 °F 93% 30.08 in 6.0 mi NW 6.9 mph - N/A   Clear
8:35 PM 19.4 °F 9.5 °F 17.6 °F 93% 30.09 in 7.0 mi NNW 8.1 mph - N/A   Clear
8:55 PM 17.6 °F 7.3 °F 15.8 °F 93% 30.09 in 7.0 mi NNW 8.1 mph - N/A   Clear
9:15 PM 17.6 °F 7.3 °F 15.8 °F 93% 30.10 in 7.0 mi NNW 8.1 mph - N/A   Clear
9:35 PM 17.6 °F 6.4 °F 14.0 °F 86% 30.10 in 7.0 mi NNW 9.2 mph - N/A   Clear
9:55 PM 15.8 °F 4.2 °F 14.0 °F 93% 30.11 in 8.0 mi NNW 9.2 mph - N/A   Clear
10:15 PM 17.6 °F 8.2 °F 15.8 °F 93% 30.11 in 7.0 mi NNW 6.9 mph - N/A   Clear
10:55 PM 17.6 °F 10.7 °F 15.8 °F 93% 30.11 in 6.0 mi NNW 4.6 mph - N/A   Clear
11:15 PM 15.8 °F 10.2 °F 14.0 °F 93% 30.11 in 5.0 mi NNW 3.5 mph - N/A   Clear
11:35 PM 15.8 °F 10.2 °F 14.0 °F 93% 30.11 in 5.0 mi NNW 3.5 mph - N/A   Clear
11:55 PM 14.0 °F - 14.0 °F 100% 30.11 in 3.0 mi Calm Calm - N/A   Clear